Tracking 18945 objects as of 19-Jan-2018
HD Live streaming from Space Station
objects crossing your sky now

RADUGA 1-1

Track RADUGA 1-1 now!
RADUGA 1-1 is classified as:


NORAD ID: 20083
Int'l Code: 1989-048A
Perigee: 36,171.1 km
Apogee: 36,303.1 km
Inclination: 15.4 °
Period: 1,458.8 minutes
Semi major axis: 42608 km
RCS: 2.8183 m2 (large)
Launch date: June 21, 1989
Source: Commonwealth of Independent States (former USSR) (CIS)
Launch site: TYURATAM MISSILE AND SPACE COMPLEX (TTMTR)
aabbcc
Your satellite tracking list
Your tracking list is empty




NASA's NSSDC Master Catalog

Two Line Element Set (TLE):
1 20083U 89048A   18018.23716528 -.00000235 +00000-0 +00000-0 0  9995
2 20083 015.3529 000.3661 0015487 062.6408 308.7118 00.98710729100953
Source of the keplerian elements: AFSPC